• In Czech Republic
  • List of Countries
  • For 7 days
  • Water Temperature
  • Satellite Maps
  • Weather Map
  • Weather Widgets
  • user-avatar
    Login

    Hourly Weather Lezhe

    Today, 26 February, Monday

    Time Temperature Precipitation Wind Pressure Humidity
    00:00 -6°C° 1.1 mm 7 mps 728 mmHg 87%
    01:00 -6°C° 1.1 mm 7 mps 728 mmHg 88%
    02:00 -6°C° 1.5 mm 7 mps 727 mmHg 88%
    03:00 -6°C° 1.5 mm 7 mps 727 mmHg 88%
    04:00 -6°C° 1.5 mm 7 mps 727 mmHg 88%
    05:00 -5°C° 0.7 mm 6 mps 727 mmHg 89%
    06:00 -5°C° 0.7 mm 6 mps 727 mmHg 89%
    07:00 -5°C° 0.7 mm 6 mps 727 mmHg 89%
    08:00 -5°C° 0.9 mm 5 mps 726 mmHg 89%
    09:00 -4°C° 0.9 mm 5 mps 726 mmHg 90%
    10:00 -4°C° 0.9 mm 5 mps 726 mmHg 91%
    11:00 -2°C° 0.5 mm 4 mps 726 mmHg 91%
    12:00 -1°C° 0.5 mm 4 mps 726 mmHg 92%
    13:00 -1°C° 0.5 mm 4 mps 725 mmHg 92%
    14:00 -1°C° 0.2 mm 4 mps 725 mmHg 91%
    15:00 -1°C° 0.2 mm 4 mps 725 mmHg 90%
    16:00 -1°C° 0.2 mm 4 mps 725 mmHg 89%
    17:00 0°C° 0.3 mm 3 mps 725 mmHg 90%
    18:00 -1°C° 0.3 mm 3 mps 725 mmHg 90%
    19:00 -1°C° 0.3 mm 3 mps 725 mmHg 90%
    20:00 -1°C° 0.7 mm 3 mps 725 mmHg 91%
    21:00 -1°C° 0.7 mm 3 mps 725 mmHg 92%
    22:00 -2°C° 0.7 mm 3 mps 725 mmHg 94%
    23:00 -2°C° 0.7 mm 3 mps 725 mmHg 93%

    Tomorrow, 27 February, Tuesday

    Time Temperature Precipitation Wind Pressure Humidity
    00:00 -2°C° 0.7 mm 2 mps 725 mmHg 93%
    01:00 -2°C° 0.7 mm 2 mps 725 mmHg 93%
    02:00 -2°C° 0.8 mm 2 mps 726 mmHg 94%
    03:00 -2°C° 0.8 mm 2 mps 726 mmHg 94%
    04:00 -1°C° 0.8 mm 2 mps 726 mmHg 95%
    05:00 -1°C° 0.5 mm 2 mps 726 mmHg 95%
    06:00 -1°C° 0.5 mm 2 mps 727 mmHg 95%
    07:00 -1°C° 0.5 mm 2 mps 727 mmHg 95%
    08:00 -1°C° 0.8 mm 3 mps 728 mmHg 95%
    09:00 0°C° 0.8 mm 3 mps 728 mmHg 96%
    10:00 -1°C° 0.8 mm 4 mps 729 mmHg 96%
    11:00 0°C° 0.8 mm 4 mps 729 mmHg 95%
    12:00 0°C° 0.8 mm 4 mps 729 mmHg 95%
    13:00 0°C° 0.8 mm 5 mps 729 mmHg 95%
    14:00 0°C° 0.2 mm 4 mps 729 mmHg 93%
    15:00 +1°C° 0.2 mm 3 mps 730 mmHg 92%
    16:00 +2°C° 0.2 mm 2 mps 730 mmHg 91%
    17:00 +1°C° 0.1 mm 2 mps 730 mmHg 91%
    18:00 -2°C° 0.1 mm 2 mps 731 mmHg 90%
    19:00 -3°C° 0.1 mm 2 mps 731 mmHg 90%
    20:00 -4°C° 0 mm 2 mps 731 mmHg 88%
    21:00 -4°C° 0 mm 2 mps 731 mmHg 86%
    22:00 -4°C° 0 mm 2 mps 732 mmHg 85%
    23:00 -5°C° 0 mm 3 mps 731 mmHg 83%

    Day after tomorrow, 28 February, Wednesday

    Time Temperature Precipitation Wind Pressure Humidity
    00:00 -5°C° 0 mm 3 mps 731 mmHg 81%
    01:00 -5°C° 0 mm 3 mps 731 mmHg 79%
    02:00 -5°C° 0.2 mm 3 mps 731 mmHg 81%
    03:00 -4°C° 0.2 mm 3 mps 731 mmHg 83%
    04:00 -4°C° 0.2 mm 3 mps 730 mmHg 85%
    05:00 -4°C° 0.4 mm 3 mps 731 mmHg 87%
    06:00 -4°C° 0.4 mm 3 mps 731 mmHg 89%
    07:00 -4°C° 0.4 mm 3 mps 731 mmHg 91%
    08:00 -2°C° 0.1 mm 3 mps 732 mmHg 89%
    09:00 -1°C° 0.1 mm 3 mps 732 mmHg 86%
    10:00 0°C° 0.1 mm 3 mps 732 mmHg 83%
    11:00 +1°C° 0 mm 3 mps 733 mmHg 82%
    12:00 +1°C° 0 mm 3 mps 733 mmHg 80%
    13:00 +2°C° 0 mm 3 mps 734 mmHg 78%
    14:00 +1°C° 0.1 mm 3 mps 734 mmHg 77%
    15:00 0°C° 0.1 mm 4 mps 735 mmHg 75%
    16:00 0°C° 0.1 mm 4 mps 735 mmHg 73%
    17:00 -1°C° 0 mm 3 mps 736 mmHg 76%
    18:00 -2°C° 0 mm 3 mps 737 mmHg 79%
    19:00 -4°C° 0 mm 2 mps 738 mmHg 82%
    20:00 -5°C° 0 mm 2 mps 738 mmHg 83%
    21:00 -5°C° 0 mm 2 mps 739 mmHg 84%
    22:00 -6°C° 0 mm 2 mps 740 mmHg 85%
    23:00 -6°C° 0 mm 2 mps 740 mmHg 84%

    1 March, Thursday

    Time Temperature Precipitation Wind Pressure Humidity
    00:00 -6°C° 0 mm 2 mps 740 mmHg 84%
    01:00 -7°C° 0 mm 2 mps 740 mmHg 83%
    02:00 -7°C° 0 mm 2 mps 740 mmHg 81%
    03:00 -8°C° 0 mm 3 mps 740 mmHg 79%
    04:00 -8°C° 0 mm 3 mps 740 mmHg 77%
    05:00 -7°C° 0 mm 3 mps 740 mmHg 76%
    06:00 -6°C° 0 mm 3 mps 740 mmHg 75%
    07:00 -6°C° 0 mm 3 mps 740 mmHg 74%
    08:00 -3°C° 0 mm 2 mps 739 mmHg 72%
    09:00 -1°C° 0 mm 2 mps 739 mmHg 70%
    10:00 +2°C° 0 mm 2 mps 739 mmHg 68%
    11:00 +3°C° 0 mm 2 mps 739 mmHg 72%
    12:00 +4°C° 0 mm 2 mps 738 mmHg 76%
    13:00 +4°C° 0 mm 2 mps 738 mmHg 80%
    14:00 +4°C° 0.2 mm 2 mps 737 mmHg 80%
    15:00 +4°C° 0.2 mm 2 mps 737 mmHg 81%
    16:00 +3°C° 0.2 mm 2 mps 737 mmHg 81%
    17:00 +3°C° 0.2 mm 2 mps 736 mmHg 83%
    18:00 +3°C° 0.2 mm 2 mps 736 mmHg 85%
    19:00 +2°C° 0.2 mm 3 mps 736 mmHg 87%
    20:00 +2°C° 0.2 mm 3 mps 736 mmHg 88%
    21:00 +2°C° 0.2 mm 3 mps 736 mmHg 89%
    22:00 +3°C° 0.2 mm 3 mps 736 mmHg 90%
    23:00 +3°C° 0.2 mm 3 mps 735 mmHg 91%

    2 March, Friday

    Time Temperature Precipitation Wind Pressure Humidity
    00:00 +3°C° 0.2 mm 3 mps 735 mmHg 91%
    01:00 +5°C° 0.2 mm 2 mps 734 mmHg 92%
    02:00 +4°C° 0.5 mm 3 mps 733 mmHg 93%
    03:00 +4°C° 0.5 mm 3 mps 733 mmHg 94%
    04:00 +4°C° 0.5 mm 3 mps 732 mmHg 95%
    05:00 +4°C° 0.9 mm 3 mps 732 mmHg 95%
    06:00 +4°C° 0.9 mm 3 mps 731 mmHg 95%
    07:00 +4°C° 0.9 mm 3 mps 731 mmHg 95%
    08:00 +5°C° 1.2 mm 3 mps 731 mmHg 95%
    09:00 +5°C° 1.2 mm 3 mps 731 mmHg 95%
    10:00 +5°C° 1.2 mm 3 mps 731 mmHg 95%
    11:00 +7°C° 0.9 mm 3 mps 730 mmHg 95%
    12:00 +7°C° 0.9 mm 3 mps 730 mmHg 95%
    13:00 +7°C° 0.9 mm 3 mps 729 mmHg 95%
    14:00 +7°C° 1.1 mm 3 mps 729 mmHg 95%
    15:00 +7°C° 1.1 mm 3 mps 729 mmHg 95%
    16:00 +7°C° 1.1 mm 3 mps 729 mmHg 95%
    17:00 +7°C° 1.4 mm 3 mps 729 mmHg 95%
    18:00 +7°C° 1.4 mm 3 mps 729 mmHg 96%
    19:00 +7°C° 1.4 mm 3 mps 729 mmHg 96%
    20:00 +7°C° 1.1 mm 3 mps 730 mmHg 96%
    21:00 +7°C° 1.1 mm 3 mps 730 mmHg 96%
    22:00 +7°C° 1.1 mm 3 mps 730 mmHg 96%
    23:00 +7°C° 1 mm 3 mps 730 mmHg 95%

    3 March, Saturday

    Time Temperature Precipitation Wind Pressure Humidity
    00:00 +7°C° 1 mm 3 mps 730 mmHg 95%
    01:00 +7°C° 1 mm 3 mps 730 mmHg 95%
    02:00 +7°C° 1.4 mm 3 mps 729 mmHg 96%
    03:00 +7°C° 1.4 mm 2 mps 729 mmHg 96%
    04:00 +7°C° 1.4 mm 2 mps 729 mmHg 96%
    05:00 +7°C° 1.3 mm 2 mps 729 mmHg 96%
    06:00 +7°C° 1.3 mm 2 mps 730 mmHg 96%
    07:00 +7°C° 1.3 mm 2 mps 730 mmHg 96%
    08:00 +8°C° 0.6 mm 2 mps 730 mmHg 95%
    09:00 +8°C° 0.6 mm 2 mps 730 mmHg 94%
    10:00 +8°C° 0.6 mm 2 mps 730 mmHg 93%
    11:00 +8°C° 0.2 mm 2 mps 730 mmHg 94%
    12:00 +9°C° 0.2 mm 2 mps 730 mmHg 94%
    13:00 +9°C° 0.2 mm 2 mps 729 mmHg 94%
    14:00 +9°C° 0.2 mm 2 mps 729 mmHg 94%
    15:00 +9°C° 0.2 mm 2 mps 729 mmHg 94%
    16:00 +10°C° 0.2 mm 1 mps 729 mmHg 94%
    17:00 +9°C° 0.2 mm 1 mps 730 mmHg 95%
    18:00 +9°C° 0.2 mm 1 mps 730 mmHg 95%
    19:00 +9°C° 0.2 mm 1 mps 730 mmHg 96%
    20:00 +9°C° 0.3 mm 1 mps 730 mmHg 96%
    21:00 +9°C° 0.3 mm 1 mps 730 mmHg 96%
    22:00 +9°C° 0.3 mm 1 mps 730 mmHg 95%
    23:00 +9°C° 0.6 mm 1 mps 730 mmHg 95%
    Show more